#timestamp,LO_Frequency,Hit,StdDev 
1510563615.5,286047006.3,P
1510563635.4,286047005.6,N
1510563655.2,286047006.9,N
1510563675.0,286047007.3,Y
1510563675.9,286047007.3,P
1510563695.8,286047001.7,N
1510563715.6,286047001.5,N
1510563735.4,286047003.6,N
1510563755.3,286047005.3,N
1510563775.1,286047005.6,N
1510563776.0,286047005.6,N
1510563795.8,286047004.7,N
1510563815.7,286047009.2,Y
1510563835.5,286047006.0,P
1510563855.3,286047003.1,P
1510563875.2,286047001.7,N
1510563895.9,286047002.6,N
1510563915.7,286047002.0,N
1510563935.6,286047003.7,N
1510563955.4,286047003.5,N
1510563975.2,286047003.3,N
1510563995.1,286047005.1,Y
1510563996.0,286047005.1,P
1510564015.8,286047002.5,N
1510564035.6,286047001.3,N
1510564055.5,286047002.1,N
1510564075.3,286047002.8,N
1510564095.1,286047002.5,N
1510564115.9,286047003.5,Y
1510564135.7,286046996.5,P
1510564155.5,286046998.2,N
1510564175.3,286047001.7,N
1510564195.2,286047004.2,N
1510564215.0,286047003.3,N
1510564215.9,286047003.3,N
1510564235.7,286047003.5,N
1510564255.6,286047003.3,N
1510564275.4,286047007.5,N
1510564295.2,286047006.9,N
1510564315.1,286047005.2,N
1510564316.0,286047005.2,N
1510564335.8,286047002.9,N
1510564355.6,286047006.0,N
1510564375.5,286047002.5,N
1510564395.3,286046999.4,N
1510564415.1,286046996.0,N
1510564435.9,286046991.9,N
1510564455.7,286046988.9,N
1510564475.5,286046988.2,N
1510564495.3,286046986.0,N
1510564515.2,286046983.5,N
1510564535.0,286046983.2,N
1510564535.9,286046983.2,N
1510564555.7,286046980.8,N
1510564575.6,286046979.7,N
1510564595.4,286046977.7,N
1510564615.2,286046979.0,N
1510564635.1,286046980.1,N
1510564636.0,286046980.1,N
1510564655.8,286046975.0,N
1510564675.6,286046974.3,N
1510564695.5,286046977.7,N
1510564715.3,286046977.7,N
1510564735.1,286046978.0,N
1510564755.9,286046977.6,N
1510564775.7,286046975.6,N
1510564795.5,286046973.3,N
1510564815.4,286046975.3,N
1510564835.2,286046971.4,N
1510564855.0,286046971.0,N
1510564855.9,286046971.0,N
1510564875.8,286046971.4,N
1510564895.6,286046968.6,Y
1510564915.4,286046984.5,P
1510564935.3,286046983.0,P
1510564955.1,286046982.4,P
1510564956.0,286046982.4,Y
1510564975.8,286046996.5,P
1510564995.7,286047000.8,N
1510565015.5,286046999.1,N
1510565035.3,286046996.7,N
1510565055.2,286046995.8,N
1510565075.9,286046995.7,N
1510565095.7,286046995.1,N
1510565115.5,286046995.3,N
1510565135.4,286047000.5,N
1510565155.2,286046999.7,N
1510565175.0,286047002.2,N
1510565175.9,286047002.2,N
1510565195.8,286047004.0,N
1510565215.6,286047000.1,N
1510565235.4,286047001.4,N
1510565255.4,286047001.4,N
1510565275.2,286047005.8,N
1510565295.1,286047004.1,N
1510565296.0,286047004.1,N
1510565315.8,286047006.0,N
1510565335.6,286047001.6,N
1510565355.4,286047004.4,N
1510565375.3,286047002.6,N
1510565395.1,286046998.4,N
1510565415.8,286046998.2,N
1510565435.7,286047002.2,N
1510565455.5,286047004.3,N
1510565475.3,286047002.2,N
1510565495.2,286047001.7,N
1510565515.9,286047002.4,N
1510565535.7,286046999.9,N
1510565555.6,286047000.0,N
1510565575.4,286047001.2,N
1510565595.2,286047001.1,N
1510565615.1,286046996.9,N
1510565616.0,286046996.9,N
1510565635.8,286046996.1,N
1510565655.6,286046992.3,N
1510565675.5,286046993.5,N
1510565695.3,286046996.8,N
1510565715.1,286046999.2,N
1510565735.8,286047000.8,N
1510565755.7,286046998.9,N
1510565775.5,286046995.2,N
1510565795.3,286046996.4,N
1510565815.2,286046991.9,N
1510565835.9,286046994.2,N
1510565855.7,286046996.3,N
1510565875.6,286046994.6,N
1510565895.4,286046993.0,N
1510565915.2,286046989.5,N
1510565935.1,286046990.5,N
1510565936.0,286046990.5,N
1510565955.8,286046990.9,N
1510565975.6,286046989.0,N
1510565995.5,286046989.2,N
1510566015.3,286046987.8,N
1510566035.1,286046989.1,N
1510566055.9,286046988.7,N
1510566075.7,286046988.6,N
1510566095.5,286046993.2,N
1510566115.3,286046992.3,N
1510566135.2,286046994.4,N
1510566155.0,286046994.6,N
1510566155.9,286046994.6,N
1510566175.7,286046992.3,N
1510566195.6,286046990.8,N
1510566215.4,286046992.5,N
1510566235.2,286046992.5,N
1510566255.1,286046994.1,N
1510566256.0,286046994.1,N
1510566275.8,286046996.1,N
1510566295.6,286046995.8,N
1510566315.5,286046995.8,N
1510566335.3,286046993.0,N
1510566355.1,286046992.8,N
1510566375.9,286046991.7,Y
1510566395.7,286046999.4,P
1510566415.5,286047000.0,N
1510566435.4,286046999.3,N
1510566455.2,286046999.7,N
1510566475.0,286047002.4,N
1510566475.9,286047002.4,N
1510566495.8,286046998.5,N
1510566515.6,286046998.7,N
1510566535.4,286047000.9,N
1510566555.2,286047002.6,N
1510566575.1,286047001.1,N
1510566576.0,286047001.1,N
1510566595.8,286046997.5,N
1510566615.6,286046996.9,N
1510566635.5,286047000.6,N
1510566655.3,286047001.1,N
1510566675.1,286046999.7,N
1510566695.9,286047004.0,N
1510566715.7,286047004.1,N
1510566735.5,286047003.3,N
1510566755.4,286047005.6,N
1510566775.2,286047005.1,N
1510566795.0,286047007.1,N
1510566795.9,286047007.1,N
1510566815.8,286047009.1,N
1510566835.6,286047006.5,N
1510566855.4,286047003.2,N
1510566875.3,286047006.0,N
1510566895.1,286047009.0,N
1510566896.0,286047009.0,N
1510566915.8,286047005.9,N
1510566935.7,286047003.3,N
1510566955.5,286047003.4,N
1510566975.3,286047005.0,N
1510566995.1,286047007.4,N
1510567015.9,286047003.3,N
1510567035.7,286047005.5,N
1510567055.5,286047005.9,N
1510567075.4,286047006.8,N
1510567095.2,286047008.9,N
1510567115.0,286047008.0,N
1510567115.9,286047008.0,N
1510567135.8,286047008.3,N
1510567155.6,286047008.9,Y
1510567175.4,286047005.9,P
1510567195.3,286047003.6,P
